Simultaneous Nadir Overpasses (SNOs) Predictions

Prediction of SNOs between LANDSAT-8 and METOP-B Satellite Orbit:

Table of predicted SNOs for the next 14.0 days since TLE Epoch: 5/14/2022
Index Date (LANDSAT-8) Time (LANDSAT-8) Lat,Lon (LANDSAT-8) SZA (LANDSAT-8 ) Date (METOP-B) Time (METOP-B) Lat,Lon (METOP-B) SZA (METOP-B ) Distance(km) Time Diff (sec)
1 05/15/2022 12:21:48 -81.15,-144.98 115.50 05/15/2022 12:21:14 -81.15,-144.84 115.49 2.44 34
2 05/15/2022 13:11:12 81.18, 23.14 64.57 05/15/2022 13:11:52 81.18, 23.24 64.60 1.69 40
3 05/18/2022 07:56:03 -81.15, -78.52 116.13 05/18/2022 07:55:34 -81.15, -78.55 116.15 0.60 29
4 05/18/2022 08:45:28 81.18, 89.57 63.94 05/18/2022 08:46:13 81.17, 89.48 63.94 1.69 45
5 05/21/2022 03:30:19 -81.15, -12.18 116.74 05/21/2022 03:29:55 -81.14, -12.33 116.77 2.44 24
6 05/21/2022 04:19:44 81.17, 155.88 63.32 05/21/2022 04:20:33 81.18, 156.05 63.37 2.98 49
7 05/23/2022 23:04:34 -81.15, 54.40 117.27 05/23/2022 23:04:15 -81.15, 54.22 117.30 3.10 19
8 05/23/2022 23:53:59 81.18,-137.56 62.79 05/23/2022 23:54:53 81.18,-137.44 62.83 2.09 54
9 05/26/2022 18:38:48 -81.16, 120.87 117.77 05/26/2022 18:38:34 -81.15, 120.72 117.80 2.58 14



Historial Predications of SNOs between LANDSAT-8 and METOP-B
